TimeAKDT,TemperatureF,Dew PointF,Humidity,Sea Level PressureIn,VisibilityMPH,Wind Direction,Wind SpeedMPH,Gust SpeedMPH,PrecipitationIn,Events,Conditions,WindDirDegrees,DateUTC
12:16 AM,53.6,51.8,94,29.86,10.0,Calm,Calm,-,N/A,,Overcast,0,2013-08-30 08:16:00
12:36 AM,53.6,51.8,94,29.87,10.0,Calm,Calm,-,N/A,,Overcast,0,2013-08-30 08:36:00
12:56 AM,53.6,51.8,94,29.87,10.0,Calm,Calm,-,N/A,,Overcast,0,2013-08-30 08:56:00
1:16 AM,53.6,51.8,94,29.87,10.0,Calm,Calm,-,N/A,,Overcast,0,2013-08-30 09:16:00
1:36 AM,53.6,51.8,94,29.86,10.0,East,3.5,-,N/A,,Overcast,80,2013-08-30 09:36:00
1:56 AM,53.6,51.8,94,29.86,10.0,Calm,Calm,-,N/A,,Overcast,0,2013-08-30 09:56:00
2:16 AM,53.6,51.8,94,29.87,10.0,Calm,Calm,-,N/A,,Overcast,0,2013-08-30 10:16:00
2:36 AM,53.6,51.8,94,29.87,10.0,Calm,Calm,-,N/A,,Overcast,0,2013-08-30 10:36:00
2:56 AM,53.6,51.8,94,29.87,10.0,Calm,Calm,-,N/A,,Overcast,0,2013-08-30 10:56:00
3:16 AM,53.6,51.8,94,29.87,10.0,Calm,Calm,-,N/A,,Overcast,0,2013-08-30 11:16:00
3:36 AM,53.6,51.8,94,29.87,10.0,ESE,4.6,-,N/A,,Overcast,120,2013-08-30 11:36:00
3:56 AM,53.6,51.8,94,29.88,10.0,Calm,Calm,-,N/A,,Overcast,0,2013-08-30 11:56:00
4:16 AM,53.6,51.8,94,29.89,10.0,Calm,Calm,-,N/A,,Overcast,0,2013-08-30 12:16:00
4:36 AM,53.6,51.8,94,29.89,10.0,Calm,Calm,-,N/A,,Overcast,0,2013-08-30 12:36:00
4:56 AM,53.6,51.8,94,29.89,10.0,Calm,Calm,-,N/A,,Overcast,0,2013-08-30 12:56:00
5:16 AM,53.6,51.8,94,29.90,10.0,Calm,Calm,-,N/A,,Overcast,0,2013-08-30 13:16:00
5:36 AM,53.6,51.8,94,29.89,10.0,Calm,Calm,-,N/A,,Overcast,0,2013-08-30 13:36:00
5:56 AM,53.6,51.8,94,29.90,7.0,Calm,Calm,-,N/A,,Overcast,0,2013-08-30 13:56:00
6:16 AM,53.6,50.0,88,29.89,2.0,Calm,Calm,-,N/A,,Overcast,0,2013-08-30 14:16:00
6:36 AM,53.6,50.0,88,29.90,10.0,South,3.5,-,N/A,,Overcast,180,2013-08-30 14:36:00
6:56 AM,51.8,50.0,94,29.91,10.0,Calm,Calm,-,N/A,,Overcast,0,2013-08-30 14:56:00
7:16 AM,51.8,50.0,94,29.91,3.0,Calm,Calm,-,N/A,,Overcast,0,2013-08-30 15:16:00
7:36 AM,51.8,50.0,94,29.91,1.0,Calm,Calm,-,N/A,,Overcast,0,2013-08-30 15:36:00
7:56 AM,51.8,50.0,94,29.91,5.0,Calm,Calm,-,N/A,,Overcast,0,2013-08-30 15:56:00
8:16 AM,51.8,50.0,94,29.92,1.8,Calm,Calm,-,N/A,,Overcast,0,2013-08-30 16:16:00
8:36 AM,53.6,50.0,88,29.92,3.0,Calm,Calm,-,N/A,,Overcast,0,2013-08-30 16:36:00
8:56 AM,53.6,50.0,88,29.93,6.0,Calm,Calm,-,N/A,,Overcast,0,2013-08-30 16:56:00
9:16 AM,53.6,50.0,88,29.93,5.0,WSW,4.6,-,N/A,,Overcast,240,2013-08-30 17:16:00
9:36 AM,53.6,50.0,88,29.93,8.0,WSW,3.5,-,N/A,,Overcast,240,2013-08-30 17:36:00
9:56 AM,53.6,51.8,94,29.93,5.0,WSW,5.8,-,N/A,,Overcast,240,2013-08-30 17:56:00
10:16 AM,53.6,51.8,94,29.94,2.0,West,4.6,-,N/A,,Overcast,260,2013-08-30 18:16:00
10:36 AM,53.6,51.8,94,29.94,8.0,WSW,4.6,-,N/A,,Overcast,240,2013-08-30 18:36:00
10:56 AM,53.6,51.8,94,29.94,7.0,WSW,4.6,-,N/A,,Overcast,250,2013-08-30 18:56:00
11:16 AM,53.6,51.8,94,29.94,10.0,SW,3.5,-,N/A,,Overcast,220,2013-08-30 19:16:00
11:36 AM,55.4,51.8,88,29.94,10.0,Calm,Calm,-,N/A,,Overcast,0,2013-08-30 19:36:00
11:56 AM,55.4,51.8,88,29.94,10.0,WSW,3.5,-,N/A,,Overcast,250,2013-08-30 19:56:00
12:16 PM,55.4,51.8,88,29.95,10.0,SW,3.5,-,N/A,,Overcast,230,2013-08-30 20:16:00
12:36 PM,55.4,51.8,88,29.95,10.0,West,3.5,-,N/A,,Overcast,280,2013-08-30 20:36:00
12:56 PM,57.2,51.8,82,29.95,10.0,West,8.1,-,N/A,,Overcast,270,2013-08-30 20:56:00
1:16 PM,57.2,51.8,82,29.95,10.0,West,8.1,-,N/A,,Overcast,280,2013-08-30 21:16:00
1:36 PM,57.2,51.8,82,29.95,10.0,WNW,6.9,-,N/A,,Overcast,290,2013-08-30 21:36:00
1:56 PM,57.2,51.8,82,29.95,10.0,WNW,4.6,-,N/A,,Mostly Cloudy,300,2013-08-30 21:56:00
2:16 PM,57.2,51.8,82,29.95,10.0,WNW,3.5,-,N/A,,Scattered Clouds,300,2013-08-30 22:16:00
2:36 PM,57.2,51.8,82,29.95,10.0,NW,3.5,-,N/A,,Scattered Clouds,310,2013-08-30 22:36:00
2:56 PM,57.2,51.8,82,29.95,10.0,WNW,3.5,-,N/A,,Mostly Cloudy,300,2013-08-30 22:56:00
3:16 PM,59.0,51.8,77,29.95,10.0,NW,3.5,-,N/A,,Overcast,320,2013-08-30 23:16:00
3:36 PM,59.0,51.8,77,29.94,10.0,West,4.6,-,N/A,,Mostly Cloudy,280,2013-08-30 23:36:00
3:56 PM,59.0,51.8,77,29.94,10.0,Calm,Calm,-,N/A,,Mostly Cloudy,0,2013-08-30 23:56:00
4:16 PM,59.0,51.8,77,29.94,10.0,Calm,Calm,-,N/A,,Partly Cloudy,0,2013-08-31 00:16:00
4:36 PM,59.0,51.8,77,29.93,10.0,Calm,Calm,-,N/A,,Clear,0,2013-08-31 00:36:00
4:56 PM,60.8,51.8,72,29.93,10.0,NW,3.5,-,N/A,,Partly Cloudy,310,2013-08-31 00:56:00
5:16 PM,60.8,51.8,72,29.93,10.0,Calm,Calm,-,N/A,,Mostly Cloudy,0,2013-08-31 01:16:00
5:36 PM,60.8,51.8,72,29.93,10.0,Calm,Calm,-,N/A,,Overcast,0,2013-08-31 01:36:00
5:56 PM,60.8,51.8,72,29.93,10.0,NW,3.5,-,N/A,,Mostly Cloudy,320,2013-08-31 01:56:00
6:16 PM,60.8,51.8,72,29.93,10.0,NW,4.6,-,N/A,,Scattered Clouds,320,2013-08-31 02:16:00
6:36 PM,60.8,51.8,72,29.93,10.0,WNW,4.6,-,N/A,,Partly Cloudy,300,2013-08-31 02:36:00
6:56 PM,59.0,51.8,77,29.93,10.0,WNW,9.2,-,N/A,,Mostly Cloudy,290,2013-08-31 02:56:00
7:16 PM,59.0,51.8,77,29.93,10.0,NNW,4.6,-,N/A,,Mostly Cloudy,340,2013-08-31 03:16:00
7:36 PM,57.2,50.0,77,29.93,10.0,WNW,3.5,-,N/A,,Partly Cloudy,290,2013-08-31 03:36:00
7:56 PM,57.2,50.0,77,29.92,10.0,Calm,Calm,-,N/A,,Clear,0,2013-08-31 03:56:00
8:16 PM,57.2,50.0,77,29.92,10.0,Calm,Calm,-,N/A,,Clear,0,2013-08-31 04:16:00
8:36 PM,57.2,51.8,82,29.92,10.0,East,3.5,-,N/A,,Clear,80,2013-08-31 04:36:00
8:56 PM,55.4,51.8,88,29.92,10.0,Calm,Calm,-,N/A,,Scattered Clouds,0,2013-08-31 04:56:00
9:16 PM,55.4,51.8,88,29.92,10.0,Calm,Calm,-,N/A,,Overcast,0,2013-08-31 05:16:00
9:36 PM,55.4,51.8,88,29.92,10.0,Calm,Calm,-,N/A,,Overcast,0,2013-08-31 05:36:00
9:56 PM,55.4,51.8,88,29.93,10.0,Calm,Calm,-,N/A,,Overcast,0,2013-08-31 05:56:00
10:16 PM,55.4,51.8,88,29.92,10.0,Calm,Calm,-,N/A,,Overcast,0,2013-08-31 06:16:00
10:36 PM,53.6,51.8,94,29.92,3.0,Calm,Calm,-,N/A,,Mostly Cloudy,0,2013-08-31 06:36:00
10:56 PM,53.6,51.8,94,29.92,10.0,Calm,Calm,-,N/A,,Partly Cloudy,0,2013-08-31 06:56:00
11:16 PM,53.6,50.0,88,29.92,10.0,Calm,Calm,-,N/A,,Clear,0,2013-08-31 07:16:00
11:36 PM,51.8,48.2,88,29.92,10.0,Calm,Calm,-,N/A,,Clear,0,2013-08-31 07:36:00
11:56 PM,51.8,48.2,88,29.92,10.0,Calm,Calm,-,N/A,,Partly Cloudy,0,2013-08-31 07:56:00